Boscobel, WI

4:49 PM CST on February 10, 2016 (GMT -0600)
Boscobel

Weather History for KOVS - February, 2014

Change the Weather History Date:

Tuesday, February 18, 2014

  Actual Average Record
Temperature  
Mean Temperature 26 °F -  
Max Temperature 46 °F - - ()
Min Temperature 5 °F - - ()
Degree Days  
Heating Degree Days 40    
Moisture  
Dew Point 13 °F    
Average Humidity 76    
Maximum Humidity 92    
Minimum Humidity 44    
Precipitation  
Precipitation 0.00 in - - ()
Sea Level Pressure  
Sea Level Pressure 29.77 in    
Wind  
Wind Speed 3 mph (SSW)    
Max Wind Speed 17 mph    
Max Gust Speed 22 mph    
Visibility 5 miles    
Events Fog    
T = Trace of Precipitation, MM = Missing Value Source: NWS Daily Summary

Daily Weather History Graph

Daily Weather History Graph

Search for Another Location

Airport or City:

Trip Planner

Search our weather history database for the weather conditions in past years. The results will help you decide how hot, cold, wet, or windy it might be!

Date:

Astronomy

Feb. 18, 2014 Rise Set
Actual Time 6:56 AM CST 5:37 PM CST
Civil Twilight 6:27 AM CST 6:06 PM CST
Nautical Twilight 5:53 AM CST 6:40 PM CST
Astronomical Twilight 5:20 AM CST 7:12 PM CST
Moon 9:38 PM CST (2/18) 8:21 AM CST (2/18)
Length of Visible Light 11h 39m
Length of Day
10h 41m
Waning Gibbous, 87% of the Moon is Illuminated
Feb 18
Waning Gibbous
Feb 22
Last Quarter
Mar 1
New
Mar 8
First Quarter
Mar 16
Full

Hourly Weather History & Observations

Time (CST) Temp. Windchill Dew Point Humidity Pressure Visibility Wind Dir Wind Speed Gust Speed Precip Events Conditions
12:01 AM 26.1 °F 20.5 °F 21.0 °F 81% 29.86 in 8.0 mi SSW 4.6 mph - N/A   Scattered Clouds
12:53 AM 24.1 °F 18.2 °F 19.9 °F 84% 29.90 in 8.0 mi SSW 4.6 mph - N/A   Clear
1:53 AM 21.0 °F - 18.0 °F 88% 29.91 in 5.0 mi Calm Calm - N/A   Clear
2:31 AM 15.1 °F - 12.0 °F 88% 29.87 in 1.8 mi Calm Calm - N/A   Clear
2:40 AM 14.0 °F - 10.9 °F 88% 29.87 in 3.0 mi Calm Calm - N/A   Clear
2:49 AM 12.2 °F - 10.4 °F 92% 29.86 in 1.8 mi Calm Calm - N/A   Clear
2:53 AM 14.0 °F - 10.0 °F 84% 29.90 in 1.8 mi Calm Calm - N/A   Clear
2:58 AM 14.0 °F - 10.0 °F 84% 29.86 in 2.0 mi Calm Calm - N/A   Partly Cloudy
3:11 AM 12.0 °F - 9.0 °F 88% 29.85 in 4.0 mi Calm Calm - N/A   Partly Cloudy
3:18 AM 12.0 °F - 9.0 °F 88% 29.85 in 1.8 mi Calm Calm - N/A   Partly Cloudy
3:26 AM 10.9 °F - 8.1 °F 88% 29.84 in 0.2 mi Calm Calm - N/A Fog Light Freezing Fog
3:53 AM 10.0 °F - 7.0 °F 87% 29.88 in 0.2 mi Calm Calm - N/A Fog Light Freezing Fog
4:12 AM 10.0 °F - 6.1 °F 84% 29.83 in 2.0 mi Calm Calm - N/A   Scattered Clouds
4:19 AM 10.9 °F - 6.1 °F 81% 29.84 in 5.0 mi Calm Calm - N/A   Haze
4:28 AM 9.0 °F - 5.0 °F 84% 29.83 in 1.8 mi Calm Calm - N/A   Partly Cloudy
4:38 AM 9.0 °F - 5.0 °F 84% 29.83 in 3.0 mi Calm Calm - N/A   Scattered Clouds
4:43 AM 9.0 °F - 5.0 °F 84% 29.83 in 2.5 mi Calm Calm - N/A   Mostly Cloudy
4:53 AM 9.0 °F - 5.0 °F 84% 29.87 in 5.0 mi Calm Calm - N/A   Mostly Cloudy
5:11 AM 9.0 °F - 5.0 °F 84% 29.82 in 5.0 mi Calm Calm - N/A   Scattered Clouds
5:48 AM 6.8 °F - 1.4 °F 79% 29.80 in 6.0 mi Calm Calm - N/A   Haze
5:53 AM 7.0 °F - 1.9 °F 80% 29.84 in 6.0 mi Calm Calm - N/A   Haze
6:09 AM 8.1 °F 1.4 °F 3.9 °F 83% 29.79 in 6.0 mi ENE 3.5 mph - N/A   Scattered Clouds
6:12 AM 9.0 °F 2.4 °F 5.0 °F 84% 29.79 in 1.5 mi ENE 3.5 mph - N/A   Scattered Clouds
6:14 AM 8.1 °F -0.5 °F 6.1 °F 92% 29.79 in 0.8 mi ENE 4.6 mph - N/A   Mist
6:30 AM 6.1 °F - 1.9 °F 83% 29.78 in 1.2 mi Calm Calm - N/A   Mostly Cloudy
6:49 AM 5.0 °F - 1.4 °F 85% 29.77 in 0.8 mi Calm Calm - N/A   Mist
6:53 AM 6.1 °F - 3.0 °F 87% 29.81 in 0.5 mi Calm Calm - N/A Fog Light Freezing Fog
7:13 AM 5.0 °F - 1.9 °F 87% 29.76 in 1.2 mi Calm Calm - N/A   Overcast
7:15 AM 5.0 °F - 1.9 °F 87% 29.76 in 0.8 mi Calm Calm - N/A   Mist
7:35 AM 7.0 °F 0.1 °F 3.9 °F 87% 29.75 in 2.0 mi Variable 3.5 mph - N/A   Partly Cloudy
7:45 AM 9.0 °F 2.4 °F 5.0 °F 84% 29.75 in 4.0 mi ENE 3.5 mph - N/A   Partly Cloudy
7:53 AM 12.9 °F 6.9 °F 9.0 °F 84% 29.78 in 4.0 mi Variable 3.5 mph - N/A   Clear
8:53 AM 21.9 °F 15.7 °F 19.0 °F 89% 29.74 in 7.0 mi NE 4.6 mph - N/A   Clear
9:53 AM 35.1 °F 29.3 °F 23.0 °F 61% 29.70 in 10.0 mi Variable 6.9 mph - N/A   Clear
10:53 AM 39.9 °F 32.9 °F 24.1 °F 53% 29.67 in 10.0 mi SSW 11.5 mph - N/A   Clear
11:53 AM 43.0 °F 36.8 °F 25.0 °F 49% 29.65 in 10.0 mi SSW 11.5 mph - N/A   Clear
12:53 PM 45.0 °F 37.6 °F 25.0 °F 46% 29.61 in 10.0 mi SW 17.3 mph 21.9 mph 0.00 in   Clear
1:53 PM 45.0 °F 39.7 °F 26.1 °F 48% 29.60 in 10.0 mi SSW 10.4 mph - 0.00 in   Clear
2:53 PM 46.0 °F 41.4 °F 26.1 °F 46% 29.60 in 10.0 mi SW 9.2 mph - N/A   Clear
3:53 PM 46.9 °F - 26.1 °F 44% 29.53 in 10.0 mi SW 6.9 mph - N/A   Clear
4:53 PM 45.0 °F 41.2 °F 27.0 °F 49% 29.61 in 10.0 mi SW 6.9 mph - N/A   Clear
5:53 PM 42.1 °F 38.4 °F 27.0 °F 55% 29.64 in 10.0 mi WSW 5.8 mph - N/A   Clear
6:53 PM 39.0 °F 35.7 °F 27.0 °F 62% 29.65 in 10.0 mi SSW 4.6 mph - N/A   Clear
7:53 PM 35.1 °F 28.6 °F 26.1 °F 70% 29.68 in 10.0 mi SSW 8.1 mph - N/A   Clear
8:53 PM 35.1 °F 30.1 °F 26.1 °F 70% 29.53 in 10.0 mi SW 5.8 mph - N/A   Clear
9:53 PM 37.0 °F 34.5 °F 27.0 °F 67% 29.71 in 10.0 mi Variable 3.5 mph - N/A   Scattered Clouds
10:53 PM 39.0 °F - 26.1 °F 60% 29.71 in 10.0 mi Calm Calm - N/A   Overcast
11:53 PM 39.0 °F 35.7 °F 28.9 °F 67% 29.72 in 10.0 mi West 4.6 mph - 0.00 in   Overcast